Richmond, VA

12:54 AM EST on December 10, 2019 (GMT -0500)
Richmond International

Weather History for KRIC - October, 2019

Change the Weather History Date:

Monday, October 21, 2019

  Actual Average Record
Temperature  
Mean Temperature 58 °F 58 °F  
Max Temperature 61 °F 70 °F 86 °F (1993)
Min Temperature 54 °F 46 °F 25 °F (1930)
Degree Days  
Heating Degree Days 8 8  
Month to date heating degree days 74 113  
Since 1 July heating degree days 74 142  
Cooling Degree Days 0 1  
Month to date cooling degree days 70 34  
Year to date cooling degree days 2040 1538  
Growing Degree Days 8 (Base 50)    
Moisture  
Dew Point 53 °F    
Average Humidity 88    
Maximum Humidity 93    
Minimum Humidity 75    
Precipitation  
Precipitation T in 0.09 in 2.65 in (1958)
Month to date precipitation 3.61 2.00  
Year to date precipitation 36.76 36.12  
Snow  
Snow 0.00 in 0.00 in 0.00 in (2002)
Month to date snowfall 0.0 0.0  
Since 1 July snowfall 0.0 0.0  
Snow Depth 0.00 in    
Sea Level Pressure  
Sea Level Pressure 30.07 in    
Wind  
Wind Speed 8 mph ()    
Max Wind Speed 15 mph    
Max Gust Speed 20 mph    
Visibility 8.6 miles    
Events      
T = Trace of Precipitation, MM = Missing Value Source: Averaged Metar Reports

Daily Weather History Graph

Daily Weather History Graph

Search for Another Location

Airport or City:

Astronomy

Oct. 21, 2019 Rise Set
Actual Time 7:22 AM EDT 6:24 PM EDT
Civil Twilight 6:56 AM EDT 6:50 PM EDT
Nautical Twilight 6:25 AM EDT 7:21 PM EDT
Astronomical Twilight 5:55 AM EDT 7:51 PM EDT
Moon No Moon Rise 2:35 PM EDT (10/21)
Length of Visible Light 11h 54m
Length of Day
11h 01m
Waning Gibbous, 48% of the Moon is Illuminated
Oct 21
Waning Gibbous
Oct 27
New
Nov 4
First Quarter
Nov 12
Full
Nov 19
Last Quarter

Hourly Weather History & Observations

Time (EDT) Temp. Dew Point Humidity Pressure Visibility Wind Dir Wind Speed Gust Speed Precip Events Conditions
12:54 AM 55.9 °F 54.0 °F 93% 29.96 in 10.0 mi North 11.5 mph - 0.00 in   Overcast
1:21 AM 55.9 °F 54.0 °F 93% 29.96 in 10.0 mi NNW 10.4 mph - N/A   Overcast
1:54 AM 55.9 °F 54.0 °F 93% 29.98 in 10.0 mi NNW 11.5 mph - N/A   Overcast
2:54 AM 55.9 °F 53.1 °F 90% 30.00 in 10.0 mi NNW 15.0 mph - N/A   Overcast
3:31 AM 55.9 °F 53.1 °F 90% 29.98 in 10.0 mi North 12.7 mph - N/A   Overcast
3:54 AM 55.9 °F 53.1 °F 90% 30.00 in 10.0 mi North 10.4 mph - N/A   Overcast
4:54 AM 55.9 °F 53.1 °F 90% 30.01 in 10.0 mi North 9.2 mph - N/A   Overcast
5:01 AM 55.9 °F 53.1 °F 90% 29.99 in 10.0 mi North 9.2 mph - N/A   Overcast
5:54 AM 55.0 °F 53.1 °F 93% 30.03 in 10.0 mi North 8.1 mph - N/A   Overcast
6:54 AM 55.0 °F 52.0 °F 89% 30.05 in 8.0 mi NNE 11.5 mph - N/A   Overcast
7:54 AM 54.0 °F 52.0 °F 93% 30.07 in 6.0 mi North 9.2 mph - 0.00 in   Light Drizzle
8:18 AM 54.0 °F 52.0 °F 93% 30.06 in 1.5 mi North 9.2 mph - 0.00 in   Light Drizzle
8:46 AM 54.0 °F 52.0 °F 93% 30.08 in 2.0 mi NNE 12.7 mph - 0.00 in   Light Drizzle
8:54 AM 54.0 °F 52.0 °F 93% 30.10 in 1.8 mi NNE 10.4 mph - 0.00 in   Light Drizzle
9:32 AM 54.0 °F 52.0 °F 93% 30.09 in 2.5 mi North 9.2 mph - 0.00 in   Light Drizzle
9:54 AM 55.0 °F 52.0 °F 89% 30.11 in 4.0 mi North 6.9 mph - 0.00 in   Overcast
10:41 AM 55.9 °F 52.0 °F 87% 30.11 in 9.0 mi North 6.9 mph - N/A   Overcast
10:54 AM 55.9 °F 52.0 °F 87% 30.12 in 7.0 mi North 8.1 mph - N/A   Overcast
11:08 AM 55.9 °F 53.1 °F 90% 30.10 in 10.0 mi NNE 8.1 mph - N/A   Overcast
11:44 AM 57.0 °F 53.1 °F 87% 30.11 in 10.0 mi North 6.9 mph - N/A   Overcast
11:54 AM 57.0 °F 53.1 °F 87% 30.12 in 10.0 mi North 10.4 mph - N/A   Overcast
12:54 PM 59.0 °F 53.1 °F 81% 30.12 in 10.0 mi Calm Calm - N/A   Overcast
1:54 PM 59.0 °F 53.1 °F 81% 30.10 in 10.0 mi Variable 3.5 mph - N/A   Overcast
2:11 PM 59.0 °F 53.1 °F 81% 30.08 in 10.0 mi North 4.6 mph - N/A   Overcast
2:54 PM 60.1 °F 53.1 °F 78% 30.09 in 10.0 mi NW 4.6 mph - N/A   Overcast
3:54 PM 61.0 °F 53.1 °F 75% 30.09 in 10.0 mi North 3.5 mph - N/A   Overcast
4:54 PM 60.1 °F 53.1 °F 78% 30.08 in 10.0 mi NNE 4.6 mph - N/A   Overcast
5:54 PM 59.0 °F 54.0 °F 83% 30.09 in 10.0 mi Calm Calm - N/A   Overcast
6:54 PM 57.9 °F 54.0 °F 87% 30.09 in 10.0 mi SE 5.8 mph - N/A   Overcast
7:15 PM 57.9 °F 54.0 °F 87% 30.09 in 10.0 mi SE 4.6 mph - N/A   Overcast
7:54 PM 57.9 °F 54.0 °F 87% 30.10 in 10.0 mi SSE 4.6 mph - N/A   Overcast
8:54 PM 57.0 °F 54.0 °F 89% 30.11 in 10.0 mi SSE 5.8 mph - N/A   Overcast
9:54 PM 57.0 °F 54.0 °F 89% 30.10 in 10.0 mi ESE 5.8 mph - N/A   Overcast
10:54 PM 57.0 °F 54.0 °F 89% 30.11 in 10.0 mi SE 6.9 mph - N/A   Overcast
11:54 PM 57.0 °F 54.0 °F 89% 30.10 in 10.0 mi SSE 5.8 mph - N/A   Overcast